STARLINK-32403

Last updated on Thu Nov 21 2024 00:02:04 GMT+0000 (Coordinated Universal Time)

1 61629U 24191J 24325.32271172 -.00001226 00000+0 -15072-4 0 9993 2 61629 42.9989 331.1783 0001191 333.3187 26.7612 15.50590053 4789
UTC large
Height (km)
Speed (km/s)
/
Latitude / Longitude
Inclination (degrees)
Orbital Period (minutes)
Azimuth
Elevation
Range (km)
Doppler Factor

Next 0 passes for location: London (51.5072 / 0.1276)

Sorry there are no passes over London.